Content
SEND FEEDBACK

Daily
Averages
Monthly
Summary
United States of America

ST. LOUIS - SAINT LOUIS UNIVERSITY, MISSOURI


Home > North America > United States > Missouri
Elevation: 580 feet     Latitude: 38 38N     Longitude: 090 14W

WEATHER
 
SELECT A DAY
Number of Records: 190,651;   Date Range: 1/1/95 - 12/16/14
 
SHARE

PRINT THIS DATA

[ ← Previous Day ]
WEATHER ALMANAC - MARCH 22, 2013
[ Next Day → ]
[ °C ]   °F
Weather ElementAverageHighLow
Temperature36.7 °F42.1 °F (1:53 pm)32 °F (1:53 am)
Dewpoint22.5 °F25 °F (6:53 pm)19.9 °F (2:53 am)
Humidity56.7 %64 % (1:53 am)47 % (1:53 pm)
Barometer30.04 in30.07 in (8:53 am)30.00 in (6:53 pm)
Wind Speed6 mph9.2 mph (1:53 pm)
Weather ElementAverage
Visibility10 mi
Wind DirectionESE (98.6 °)

Weather ElementTotal
Precipitation---
Heating Degree Days28 (Base 65)
Averaged from 22 records on March 22, 2013
WEATHER CONDITIONS BREAKOUT
WIND DIRECTION BREAKOUT
WEATHER BY HOUR - MARCH 22, 2013
[ °C ]   °F
Local TimeTemperatureDewpointHumidityBarometerVisibilityWind DirectionWind SpeedGust SpeedPrecipitationEventsConditions
1:53 AM32.0 °F21.0 °F64 %30.04 in10.0 miESE (120°)8.1 mphOvercast
2:53 AM32.0 °F19.9 °F61 %30.04 in10.0 miSE (140°)5.8 mphOvercast
3:53 AM32.0 °F21.0 °F64 %30.03 in10.0 miSE (130°)3.5 mphOvercast
4:53 AM32.0 °F21.0 °F64 %30.03 in10.0 miESE (110°)4.6 mphOvercast
5:53 AM32.0 °F19.9 °F61 %30.04 in10.0 miESE (110°)4.6 mphOvercast
6:53 AM32.0 °F21.0 °F64 %30.04 in10.0 miEast (80°)4.6 mphOvercast
7:53 AM32.0 °F21.0 °F64 %30.06 in10.0 miEast (90°)4.6 mphOvercast
8:53 AM33.1 °F21.9 °F64 %30.07 in10.0 miEast (100°)5.8 mphOvercast
9:53 AM34.0 °F21.9 °F61 %30.07 in10.0 miESE (120°)4.6 mphOvercast
10:53 AM35.1 °F21.9 °F59 %30.06 in10.0 miEast (100°)4.6 mphOvercast
11:53 AM37.9 °F23.0 °F55 %30.06 in10.0 miSE (130°)6.9 mphOvercast
12:53 PM41.0 °F24.1 °F51 %30.04 in10.0 miSSE (150°)6.9 mphOvercast
1:53 PM42.1 °F23.0 °F47 %30.02 in10.0 miESE (120°)9.2 mphOvercast
2:53 PM42.1 °F23.0 °F47 %30.01 in10.0 miSE (130°)9.2 mphOvercast
3:53 PM41.0 °F23.0 °F49 %30.01 in10.0 miESE (120°)5.8 mphOvercast
4:53 PM41.0 °F23.0 °F49 %30.01 in10.0 miCalmOvercast
6:53 PM41.0 °F25.0 °F53 %30.00 in10.0 miENE (70°)8.1 mphOvercast
7:53 PM39.9 °F24.1 °F53 %30.02 in10.0 miEast (80°)6.9 mphOvercast
8:53 PM39.9 °F24.1 °F53 %30.03 in10.0 miENE (60°)9.2 mphOvercast
9:53 PM39.0 °F24.1 °F55 %30.04 in10.0 miEast (80°)6.9 mphOvercast
10:53 PM39.0 °F23.0 °F53 %30.05 in10.0 miENE (70°)5.8 mphOvercast
11:53 PM37.9 °F24.1 °F57 %30.04 in10.0 miENE (60°)5.8 mphOvercast
Hourly data recorded from KCPS, located miles away from St. Louis - Saint Louis University, Missouri







STORIES FROM OUR PARTNERS